Home   Weather   Wels   Past weeks

Flag for Austria Past Weather in Wels, Upper Austria, Austria — Yesterday and Last 2 Weeks

49 °F


Feels Like: 47 °F
Forecast: 47 / 53 °F
Wind: 5 mph from West

Location: Linz / Hoersching-Flughafen

Current Time: Oct 29, 2016 at 12:01:00 AM

Latest Report: Oct 28, 2016 at 11:00 PM

Visibility: 4 mi

Pressure: 30.54 "Hg

Humidity: 87%

Dew Point: 45 °F

Location of WelsLocation

Past Weather in Wels — Graph


Wels Temperature Yesterday

Maximum temperature yesterday: 55 °F (at 3:00 PM)
Minimum temperature yesterday: 39 °F (at 7:00 AM)
Average temperature yesterday: 46 °F

High & Low Weather Summary for the Past Weeks

High66 °F (Oct 16, 4:00 PM)100% (Oct 19, 7:00 AM)30.59 "Hg (Oct 19, 7:00 AM)
Low32 °F (Oct 23, 6:00 AM)57% (Oct 22, 3:00 PM)29.75 "Hg (Oct 15, 6:00 AM)
Average48 °F89%30.14 "Hg
* Reported Oct 13 10:00 PM — Oct 28 10:00 PM, Wels, Weather by CustomWeather, © 2016

Note: Actual official high and low records may vary slightly from our data, if they occured in-between our weather recording intervals... More about our weather records


Wels Weather History for the Previous 24 Hours

Scroll right to see more
Time TempWeatherWind HumidityBarometerVisibility
10:00 PM
Fri, Oct 28
49 °FOvercast.5 mph85%30.53 "Hg5 mi
9:00 PM49 °FOvercast.3 mph85%30.54 "Hg4 mi
8:00 PM47 °FPassing clouds.5 mph88%30.54 "Hg4 mi
7:00 PM47 °FPassing clouds.5 mph85%30.53 "Hg4 mi
6:00 PM50 °FPassing clouds.7 mph77%30.53 "Hg6 mi
5:00 PM52 °FPartly sunny.6 mph72%30.50 "Hg6 mi
4:00 PM54 °FPartly sunny.7 mph64%30.51 "Hg12 mi
3:00 PM55 °FScattered clouds.6 mph66%30.51 "Hg10 mi
2:00 PM53 °FScattered clouds.N/A75%30.51 "Hg4 mi
1:00 PM52 °FScattered clouds.N/A83%30.54 "Hg4 mi
12:00 PM47 °FScattered clouds.N/A87%30.57 "Hg3 mi
11:00 AM42 °FLow clouds.N/A97%30.59 "Hg1 mi
10:00 AM41 °FLight rain. Low clouds.N/A98%30.58 "Hg0 mi
9:00 AM39 °FLight snow. Partly sunny.N/A100%30.59 "Hg0 mi
8:00 AM41 °FLight rain. Partly sunny.N/A100%30.58 "Hg1 mi
7:00 AM39 °FLight snow. Passing clouds.N/A100%30.56 "Hg0 mi
6:00 AM41 °FLight rain. Passing clouds.N/A100%30.59 "Hg0 mi
5:00 AM41 °FPassing clouds.N/A94%30.57 "Hg3 mi
4:00 AM44 °FPassing clouds.N/A92%30.56 "Hg4 mi
3:00 AM46 °FOvercast.N/A88%30.58 "Hg4 mi
2:00 AM45 °FOvercast.N/A92%30.57 "Hg4 mi
1:00 AM46 °FOvercast.N/A87%30.58 "Hg5 mi
12:00 AM47 °FOvercast.5 mph86%30.58 "Hg4 mi
Weather by CustomWeather, © 2016

See weather overviewHow to use our weather pages